User: anonymous   Login
Location: Newark
(45.0667°N, 7.8333°E)
Time: 12:04:30
(UTC+00:00)
Language:

LilacSat-2 - Orbit

View from above orbital plane
View from above orbital plane
View from above satellite
View from above satellite

Ground track
Ground track

The orbit data is extracted from the following two-line orbital elements,

1 40908U 15049K   19287.97684829  .00000168  00000-0  12880-4 0  9998
2 40908  97.4833 286.5013 0016671 148.7344 295.4032 15.13864920224703
Epoch (UTC): 14 October 2019 23:26:39
Eccentricity: 0.0016671
inclination: 97.4833°
perigee height: 513 km
apogee height: 536 km
right ascension of ascending node: 286.5013°
argument of perigee: 148.7344°
revolutions per day: 15.13864920
mean anomaly at epoch: 295.4032°
orbit number at epoch: 22470

The dashed part of the orbit path shows where the satellite is in the earth's shadow,  

DLR